Probability
0 0 0 0 0 0 0 0 0 0 0 0 0 0 0 0 0 0 0 0 0 0 0 0 0 0 0 0 0 0 0 0 0 0 0 0 0 0 0 0 0 0 0 0
0 0 0 0 0 0 0 0 0 0 0 0 0 0 0 0 0 0 0 0 0 0 0 0 0 0 0 0 0 0 0 0 0 0 0 0 0 0 0 0 0 0 0 0
0 0 0 0 0 0 0 0 0 0 0 0 0 0 0 0 0 0 0 0 0 0 0 0 0 0 0 0 0 0 0 0 0 0 0 0 0 0 0 0 0 0 0 0
0 0 0 0 0 0 0 0 0 0 0 0 0 0 0 0 0 0 0 0 0 0 0 0 0 0 0 0 0 0 0 0 0 0 0 0 0 0 0 0 0 0 0 0
0 0 0 0 0 0 0 0 0 0 0 0 0 0 0 0 0 0 0 0 0 0 0 0 0 0 0 0 0 0 0 0 0 0 0 0 0 0 0 0 0 0 0 0
0 0 0 0 0 0 0 0 0 0 0 0 0 0 0 0 0 0 0 0 0 0 0 0 0 0 0 0 0 0 0 0 0 0 0 0 0 0 0 0 0 0 0 0
0 0 0 0 0 0 0 0 0 0 0 0 0 0 0 0 0 0 0 0 0 0 0 0 0 0 0 0 0 0 0 0 0 0 0 0 0 0 0 0 0 0 0 0
0 0 0 0 0 0 0 0 0 0 0 0 0 0 0 0 0 0 0 0 0 0 0 0 0 0 0 0 0 0 0 0 0 0 0 0 0 0 0 0 0 0 0 0
0 0 0 0 0 0 0 0 0 0 0 0 0 0 0 0 0 0 0 0 0 0 0 0 0 0 0 0 0 0 0 0 0 0 0 0 0 0 0 0 0 0 0 0
0 0 0 0 0 0 0 0 0 0 0 0 0 0 0 0 0 0 0 0 0 0 0 0 0 0 0 0 0 0 0 0 0 0 0 0 0 0 0 0 0 0 0 0
0 0 0 0 0 0 0 0 0 0 0 0 0 0 0 0 0 0 0 0 0 0 0 0 0 0 0 0 0 0 0 0 0 0 0 0 0 0 0 0 0 0 0 0
0 0 0 0 0 0 0 0 0 0 0 0 0 0 0 0 0 0 0 0 0 0 0 0 0 0 0 0 0 0 0 0 0 0 0 0 0 0 0 0 0 0 0 0
0 0 0 0 0 0 0 0 0 0 0 0 0 0 0 0 0 0 0 0 0 0 0 0 0 0 0 0 0 0 0 0 0 0 0 0 0 0 0 0 0 0 0 0
0 0 0 0 0 0 0 0 0 0 0 0 0 0 0 0 0 0 0 0 0 0 0 0 0 0 0 0 0 0 0 0 0 0 0 0 0 0 0 0 0 0 0 0
0 0 0 0 0 0 0 0 0 0 0 0 0 0 0 0 0 0 0 0 0 0 0 0 0 0 0 0 0 0 0 0 0 0 0 0 0 0 0 0 0 0 0 0
0 0 0 0 0 0 0 0 0 0 0 0 0 0 0 0 0 0 0 0 0 0 0 0 0 0 0 0 0 0 0 0 0 0 0 0 0 0 0 0 0 0 0 0
0 0 0 0 0 0 0 0 0 0 0 0 0 0 0 0 0 0 0 0 0 0 0 0 0 0 0 0 0 0 0 0 0 0 0 0 0 0 0 0 0 0 0 0
0 0 0 0 0 0 0 0 0 0 0 0 0 0 0 0 0 0 0 0 0 0 0 0 0 0 0 0 0 0 0 0 0 0 0 0 0 0 0 0 0 0 0 0
0 0 0 0 0 0 0 0 0 0 0 0 0 0 0 0 0 0 0 0 0 0 0 0 0 0 0 0 0 0 0 0 0 0 0 0 0 0 0 0 0 0 0 0
0 0 0 0 0 0 0 0 0 0 0 0 0 0 0 0 0 0 0 0 0 0 0 0 0 0 0 0 0 0 0 0 0 0 0 0 0 0 0 0 0 0 0 0
0 0 0 0 0 0 0 0 0 0 0 0 0 0 0 0 0 0 0 0 0 0 0 0 0 0 0 0 0 0 0 0 0 0 0 0 0 0 0 0 0 0 0 0
0 0 0 0 0 0 0 0 0 0 0 0 0 0 0 0 0 0 0 0 0 0 0 0 0 0 0 0 0 0 0 0 0 0 0 0 0 0 0 0 0 0 0 0
0 0 0 0 0 0 0 0 0 0 0 0 0 0 0 0 0 0 0 0 0 0 0 0 0 0 0 0 0 0 0 0 0 0 0 0 0 0 0 0 0 0 0 0
0 0 0 0 0 0 0 0 0 0 0 0 0 0 0 0 0 0 0 0 0 0 0 0 0 0 0 0 0 0 0 0 0 0 0 0 0 0 0 0 0 0 0 0
0 0 0 0 0 0 0 0 0 0 0 0 0 0 0 0 0 0 0 0 0 0 0 0 0 0 0 0 0 0 0 0 0 0 0 0 0 0 0 0 0 0 0 0
0 0 0 0 0 0 0 0 0 0 0 0 0 0 0 0 0 0 0 0 0 0 0 0 0 0 0 0 0 0 0 0 0 0 0 0 0 0 0 0 0 0 0 0
0 0 0 0 0 0 0 0 0 0 0 0 0 0 0 0 0 0 0 0 0 0 0 0 0 0 0 0 0 0 0 0 0 0 0 0 0 0 0 0 0 0 0 0
Wind_Speed
16 13 9 11 15 19 17 17 13 16 12 7 11 14 14 14 15 15 16 16 16 16 15 16 15 15 15 14 14 15 15 17 16 13 11 13 15 15 15 18 20 21 20 20
15 15 12 17 20 19 21 18 14 12 4 2 4 7 10 9 10 14 15 14 13 15 14 16 18 17 16 15 15 16 15 16 18 17 12 11 12 12 13 16 17 18 21 21
18 13 11 18 17 18 20 11 1 3 3 2 5 8 12 9 8 11 13 15 13 14 13 13 15 16 16 15 13 13 13 14 15 18 17 13 9 9 12 15 16 18 19 19
11 11 19 12 4 7 9 9 7 5 5 8 7 5 6 1 5 9 11 12 12 12 13 13 15 15 14 15 14 12 12 13 15 17 18 16 9 7 7 9 13 16 17 18
6 10 14 4 2 3 3 5 6 5 8 7 7 6 3 3 5 8 11 9 10 11 12 13 15 15 14 16 17 17 15 15 15 16 18 15 10 7 4 6 9 12 14 15
5 6 8 4 2 2 3 5 7 8 8 8 6 6 9 6 5 9 10 9 10 10 9 10 13 12 14 15 16 16 16 17 16 13 14 15 11 5 3 5 7 8 8 10
7 6 9 6 6 0 2 5 5 6 9 9 8 9 11 9 6 7 9 11 12 11 10 11 10 10 14 15 16 16 16 18 18 12 12 12 10 3 2 3 3 4 4 5
2 4 9 5 3 3 6 5 5 7 11 11 9 10 10 11 11 9 12 14 13 12 14 14 11 10 14 17 16 15 17 18 17 15 12 8 8 5 3 5 5 5 6 4
9 11 8 8 11 10 4 7 10 11 11 8 8 12 11 11 13 13 14 14 12 11 16 16 12 10 14 16 14 17 19 20 18 17 13 9 9 8 6 6 5 5 6 7
18 21 17 16 17 10 8 13 12 8 6 5 9 11 11 12 14 15 16 15 13 13 16 19 16 14 15 16 15 16 20 20 18 18 16 12 9 9 9 9 9 10 11 11
16 20 17 18 15 14 14 10 3 2 1 3 6 11 12 14 16 16 17 17 14 14 17 21 21 19 17 16 16 18 19 19 17 16 16 14 13 12 11 12 13 12 11 10
18 20 16 16 13 2 1 0 1 3 5 6 8 12 14 15 16 16 18 19 20 20 21 22 22 22 18 16 17 19 19 18 15 14 14 13 12 12 19 20 22 25 22 15
20 20 15 10 1 5 1 2 3 5 7 11 13 11 13 16 17 20 21 21 21 22 22 22 23 24 22 18 18 19 19 19 16 14 13 13 12 10 9 13 23 26 27 25
4 4 8 0 2 4 4 5 6 7 8 8 11 12 12 17 20 20 20 20 21 22 23 23 24 23 21 20 19 19 19 20 17 14 13 13 12 9 8 8 9 12 20 23
6 4 3 4 3 4 6 8 10 10 10 10 10 13 14 17 20 21 21 21 22 23 22 22 22 23 21 20 20 19 17 15 14 14 13 15 13 8 8 8 8 7 8 15
3 2 2 3 4 5 6 6 9 12 13 15 15 15 16 17 19 19 19 20 22 22 22 22 22 22 20 19 19 17 16 17 16 13 12 14 12 9 7 7 7 7 8 9
1 1 3 4 7 9 8 8 10 12 14 15 16 18 18 18 18 17 17 18 19 21 20 20 20 20 17 17 17 14 13 13 16 13 12 13 10 8 8 7 8 8 7 9
2 2 4 7 9 10 11 10 11 12 12 15 16 16 16 17 18 18 18 18 18 18 17 18 19 19 17 17 16 13 13 12 12 12 12 11 8 7 7 7 7 6 5 10
3 5 7 8 9 10 11 12 12 12 13 14 15 15 16 16 16 17 18 17 17 18 19 22 23 20 16 18 17 12 11 10 10 10 9 7 5 4 5 5 5 5 5 5
5 6 7 8 9 9 11 12 13 12 12 13 14 14 14 15 15 16 17 16 14 16 21 22 20 16 15 16 16 10 9 8 6 5 4 3 3 3 4 4 4 5 6 7
6 7 8 9 9 9 10 11 11 12 13 12 12 12 13 14 14 14 14 14 16 19 20 19 16 14 13 13 12 9 8 8 7 6 6 5 6 6 6 6 7 7 7 8
6 7 8 9 9 10 9 9 10 11 11 10 10 10 11 12 12 12 12 11 16 19 15 13 14 16 16 15 11 10 10 9 8 8 7 7 6 6 6 7 7 7 7 8
7 7 8 8 9 10 10 9 9 8 8 8 8 8 8 9 8 9 12 13 14 17 14 13 18 20 18 13 11 11 12 11 10 9 9 8 8 7 7 7 8 8 8 8
6 7 8 8 8 7 7 7 6 6 6 6 5 5 6 7 6 5 8 13 15 16 13 14 18 19 15 11 11 11 11 11 11 10 10 10 9 8 8 8 8 8 9 10
6 7 6 6 5 5 6 7 6 5 5 4 3 4 4 4 5 7 9 10 13 13 11 15 18 16 11 10 10 10 10 10 10 9 9 9 9 9 9 9 9 10 9 9
5 5 5 5 5 6 6 5 4 4 4 3 3 4 4 4 5 5 7 8 10 10 10 10 11 11 10 10 10 10 9 9 9 9 9 8 9 8 8 8 9 8 8 7
5 6 6 6 6 6 6 6 5 4 4 3 3 4 5 5 5 6 7 7 8 8 8 9 10 10 10 10 10 10 9 9 10 10 9 8 8 8 8 8 7 7 6 6
Wind_Direction
269 280 295 289 291 289 273 267 273 290 305 50 9 353 351 345 350 352 349 343 346 346 341 340 342 344 345 345 344 339 339 342 332 305 274 253 240 228 210 204 199 197 197 195
296 294 291 283 274 268 268 269 265 264 239 84 333 325 326 320 333 337 334 330 337 335 335 334 334 336 336 339 340 338 343 343 335 325 309 274 250 232 212 207 203 199 200 195
272 281 299 273 255 251 256 268 210 236 162 233 281 314 326 322 322 332 323 316 322 320 327 326 324 326 327 327 327 330 333 331 334 330 323 307 274 239 218 209 204 205 206 200
274 286 266 255 64 72 81 88 96 116 202 220 240 283 297 329 325 318 310 304 311 314 319 316 316 318 318 321 320 322 324 325 331 332 323 310 288 250 234 215 207 205 206 203
229 229 259 281 93 94 130 185 183 219 248 245 258 273 246 329 305 297 296 295 306 307 306 313 312 314 321 323 324 323 324 324 329 328 316 301 273 257 231 218 218 219 211 203
218 235 245 227 246 216 133 259 224 221 238 230 248 288 300 304 296 293 291 294 297 292 286 290 296 309 318 318 318 319 324 322 313 305 294 283 266 246 232 221 223 223 220 202
225 241 265 246 257 69 194 272 228 226 238 225 215 238 282 299 291 281 287 293 294 294 291 290 294 310 306 306 308 316 319 310 300 290 275 272 271 253 213 214 186 179 196 206
188 249 267 247 279 223 252 261 240 256 246 225 236 258 269 282 290 288 291 294 297 299 297 297 301 303 296 295 304 308 304 299 299 297 282 258 253 245 199 192 186 166 162 179
216 229 248 242 252 267 213 231 251 244 238 229 255 268 269 276 285 290 289 288 289 286 285 285 286 284 283 293 307 306 304 303 305 302 290 259 239 232 217 200 195 185 181 193
266 265 261 269 274 276 268 267 268 242 235 234 252 265 278 284 286 289 289 286 289 287 281 283 287 290 291 304 310 305 301 300 300 297 292 271 239 228 223 212 204 203 197 196
250 258 268 266 264 266 268 271 268 273 246 266 273 277 280 281 284 287 290 293 292 286 286 288 296 297 302 304 304 297 291 289 289 288 282 271 243 225 225 223 212 214 210 194
248 258 263 271 278 286 236 223 14 324 304 280 270 277 282 283 288 293 294 296 298 296 295 296 299 297 299 298 294 289 286 285 283 281 281 275 261 245 236 236 233 230 224 206
248 261 269 273 74 72 45 348 315 290 281 286 288 293 292 291 292 296 297 299 299 298 298 298 295 293 295 292 284 276 276 279 280 276 273 272 261 241 246 243 240 236 231 218
259 291 275 58 65 12 347 318 301 286 278 274 289 299 298 295 297 298 298 299 297 294 293 291 288 287 289 287 281 276 274 275 275 274 272 270 261 236 226 234 234 232 229 223
56 35 345 11 4 348 342 332 318 312 313 307 304 302 303 300 300 301 302 300 297 295 294 292 291 291 290 286 282 278 275 272 272 273 274 279 275 243 215 222 227 225 212 218
359 2 28 348 329 335 333 319 306 307 313 310 308 306 305 301 298 298 301 307 309 308 306 302 296 293 293 288 283 278 272 267 265 264 266 267 261 238 215 221 225 218 206 205
30 339 338 317 317 316 313 306 300 300 302 302 302 306 305 303 303 307 311 311 306 301 301 300 299 298 295 290 285 280 276 271 266 260 256 258 248 217 209 211 216 213 208 203
52 292 281 282 293 302 303 299 295 292 293 296 299 301 303 307 310 311 309 308 308 307 309 310 307 304 301 296 289 283 274 265 259 254 257 254 230 204 203 205 206 201 192 201
321 301 300 298 299 298 296 295 293 293 294 295 297 300 305 306 307 308 310 314 318 320 325 322 317 317 313 306 303 297 293 283 271 260 246 229 207 193 184 180 174 169 170 167
303 297 292 288 285 281 282 284 287 289 289 290 296 303 305 309 313 315 316 318 323 324 320 321 323 323 323 321 321 319 315 317 326 350 29 59 78 93 98 102 105 97 86 88
295 292 291 289 286 277 271 276 282 285 287 292 298 302 308 312 318 323 326 325 328 329 327 329 331 334 335 335 337 341 345 353 4 15 32 46 57 64 65 63 69 81 86 89
278 279 281 280 283 282 275 272 270 274 283 292 296 304 313 318 325 330 333 328 326 334 337 336 341 351 354 352 353 356 3 10 15 20 29 38 48 57 62 66 68 72 78 84
276 278 282 281 279 280 282 275 268 272 285 292 301 315 319 315 320 334 336 334 335 338 342 345 353 2 4 4 4 7 9 13 19 24 27 31 35 43 53 61 64 68 75 81
284 281 275 273 277 283 283 287 290 292 291 294 304 314 319 326 329 340 328 324 334 339 344 351 0 7 9 8 10 13 15 16 18 22 27 33 36 38 43 50 58 63 69 75
284 282 287 297 302 299 301 310 313 314 316 321 325 330 325 325 324 322 330 331 337 345 350 356 2 7 10 12 14 18 19 21 25 29 32 35 37 40 44 49 55 61 63 68
298 302 310 319 324 324 324 321 323 327 331 339 343 344 339 340 342 340 338 341 346 353 357 358 2 6 9 14 19 21 22 22 28 34 38 42 46 48 51 54 56 62 65 71
330 341 344 344 343 337 334 339 342 339 341 355 350 352 354 354 356 357 355 353 357 360 1 0 4 10 12 15 19 23 24 25 28 30 33 36 39 42 46 50 53 55 58 64